THOR ABLESTAR DEB, 144

Orbit data source: Space-Track

THOR ABLESTAR DEB, 144 is space debris in LEO originally from a launch on Thu, 29 Jun 1961 UTC launched from the Air Force Eastern Test Range (AFETR). Debris objects in space refer to the collection of defunct objects orbiting the Earth. Examples of debris include non-operational satellites, rocket bodies, and fragments generated from explosions, collisions, or faulty payload assembly.

Loading next visibility...
Identifier
144, 1961-015AE
Orbit
LEO
Country
Flag of USUS
Related business
Manufacturer
Unknown
Mission
Spacecraft
Bus & Motor
Unknown
Mass
Unknown
Launch date (UTC)
1961-06-29 (65 years ago)
Launch vehicle
Unknown
Launch site
Air Force Eastern Test Range (AFETR)
Object type
Payload
Rocket body
Debris
Shape & HBR
Unknown shape, 0.2 m
Radar Cross Section
Medium (>0.1 m² and <1 m²)

Expand to show TLE details & history
Last TLE update: 2 days ago

TLE from 2 days ago
0 THOR ABLESTAR DEB
1   144U 61015AE  26171.32174156  .00000116  00000-0  15220-3 0  9999
2   144  66.5001  20.3013 0042929 346.8029  13.1920 13.91682485285082
Epoch: 2026-06-20T07:43Z
TLE epoch observation values (Epoch: 2026-06-20T07:43:18.470Z)
Latitude
-0.00011°
Longitude
-4.06374°
Altitude
894.283 km
Speed
7.421 km/s
True Right ascension
01h 21m 12s
True Declination
0° 00' 00"
Sunlit
Object was in daylight at epoch
Visualization orbit readout
Latitude
Unknown
Longitude
Unknown
Altitude
Unknown
Speed
Unknown
Apparent Right ascension
Unknown
Apparent Declination
Unknown
Sunlit
N/A
Visualization observer readout
Local Sidereal Time
00:50:20
Azimuth
Unknown
Elevation
Unknown
Doppler factor
Unknown
Orbital elements
Apogee altitude
952.503 km
Perigee altitude
889.833 km
Semi-major axis
7,299.305 km
Eccentricity
0.00429
Inclination
66.5001°
RAAN
20.3013°
Arg. of periapsis
346.8029°
True anomaly
13.30486°
Mean anomaly
13.192°
Eccentric anomaly
13.24837°
Mean motion
3.48033 °/min
Orbital period
103.44 mins
BSTAR
0.0001522

Documentation

Showing up to 5 results
|